TimeCST,TemperatureF,Dew PointF,Humidity,Sea Level PressureIn,VisibilityMPH,Wind Direction,Wind SpeedMPH,Gust SpeedMPH,PrecipitationIn,Events,Conditions,WindDirDegrees,DateUTC
12:15 AM,37.4,26.6,65,30.24,10.0,ESE,3.5,-,N/A,,Clear,110,2013-02-08 06:15:00
12:35 AM,33.8,26.6,75,30.24,10.0,Calm,Calm,-,N/A,,Clear,0,2013-02-08 06:35:00
12:55 AM,37.4,26.6,65,30.25,10.0,Calm,Calm,-,N/A,,Clear,0,2013-02-08 06:55:00
1:15 AM,32.0,23.0,69,30.25,10.0,Calm,Calm,-,N/A,,Clear,0,2013-02-08 07:15:00
1:35 AM,30.2,23.0,75,30.25,10.0,SW,3.5,-,N/A,,Clear,230,2013-02-08 07:35:00
1:55 AM,30.2,23.0,75,30.25,10.0,SW,8.1,-,N/A,,Clear,230,2013-02-08 07:55:00
2:15 AM,30.2,23.0,75,30.26,10.0,SSW,10.4,-,N/A,,Clear,210,2013-02-08 08:15:00
2:35 AM,30.2,23.0,75,30.26,10.0,SW,9.2,-,N/A,,Clear,220,2013-02-08 08:35:00
2:55 AM,30.2,23.0,75,30.26,10.0,SSW,9.2,-,N/A,,Clear,210,2013-02-08 08:55:00
3:35 AM,32.0,24.8,75,30.26,10.0,SW,9.2,-,N/A,,Clear,220,2013-02-08 09:35:00
3:55 AM,32.0,24.8,75,30.25,10.0,SSW,6.9,-,N/A,,Clear,210,2013-02-08 09:55:00
4:15 AM,30.2,23.0,75,30.25,10.0,SW,8.1,-,N/A,,Clear,220,2013-02-08 10:15:00
4:35 AM,32.0,24.8,75,30.26,10.0,SSW,6.9,-,N/A,,Clear,210,2013-02-08 10:35:00
4:55 AM,32.0,24.8,75,30.26,10.0,SW,6.9,-,N/A,,Clear,230,2013-02-08 10:55:00
5:15 AM,30.2,23.0,75,30.26,10.0,SW,8.1,-,N/A,,Clear,220,2013-02-08 11:15:00
5:35 AM,28.4,23.0,80,30.26,10.0,SW,8.1,-,N/A,,Clear,220,2013-02-08 11:35:00
5:55 AM,30.2,23.0,75,30.26,10.0,SW,8.1,-,N/A,,Clear,220,2013-02-08 11:55:00
6:15 AM,28.4,23.0,80,30.26,10.0,SSW,5.8,-,N/A,,Clear,210,2013-02-08 12:15:00
6:35 AM,28.4,23.0,80,30.25,10.0,SSW,6.9,-,N/A,,Clear,200,2013-02-08 12:35:00
6:55 AM,30.2,23.0,75,30.26,10.0,South,5.8,-,N/A,,Clear,190,2013-02-08 12:55:00
7:15 AM,28.4,23.0,80,30.26,10.0,SW,8.1,-,N/A,,Clear,220,2013-02-08 13:15:00
7:35 AM,28.4,23.0,80,30.26,10.0,SSE,6.9,-,N/A,,Clear,150,2013-02-08 13:35:00
7:55 AM,28.4,23.0,80,30.26,10.0,South,6.9,-,N/A,,Clear,170,2013-02-08 13:55:00
8:15 AM,28.4,23.0,80,30.26,10.0,South,5.8,-,N/A,,Clear,190,2013-02-08 14:15:00
8:35 AM,32.0,24.8,75,30.27,10.0,SW,5.8,-,N/A,,Clear,230,2013-02-08 14:35:00
8:55 AM,32.0,26.6,80,30.28,10.0,WSW,6.9,-,N/A,,Clear,240,2013-02-08 14:55:00
9:15 AM,35.6,26.6,70,30.29,10.0,SW,9.2,-,N/A,,Clear,230,2013-02-08 15:15:00
9:35 AM,37.4,26.6,65,30.29,10.0,SW,6.9,-,N/A,,Clear,220,2013-02-08 15:35:00
9:55 AM,41.0,28.4,61,30.28,10.0,SSW,4.6,-,N/A,,Clear,210,2013-02-08 15:55:00
10:15 AM,46.4,28.4,50,30.29,10.0,SSW,5.8,-,N/A,,Clear,200,2013-02-08 16:15:00
10:35 AM,50.0,23.0,35,30.27,10.0,SE,8.1,-,N/A,,Clear,140,2013-02-08 16:35:00
10:55 AM,50.0,23.0,35,30.28,10.0,SSE,10.4,-,N/A,,Clear,150,2013-02-08 16:55:00
11:15 AM,50.0,21.2,32,30.28,10.0,SE,10.4,-,N/A,,Clear,130,2013-02-08 17:15:00
11:35 AM,51.8,21.2,30,30.28,10.0,SSE,11.5,-,N/A,,Clear,150,2013-02-08 17:35:00
11:55 AM,51.8,19.4,28,30.26,10.0,SSE,12.7,-,N/A,,Clear,150,2013-02-08 17:55:00
12:15 PM,53.6,21.2,28,30.27,10.0,SE,10.4,-,N/A,,Clear,140,2013-02-08 18:15:00
12:35 PM,53.6,21.2,28,30.25,10.0,SSE,10.4,-,N/A,,Clear,150,2013-02-08 18:35:00
12:55 PM,53.6,19.4,26,30.25,10.0,SSE,13.8,-,N/A,,Clear,150,2013-02-08 18:55:00
1:15 PM,53.6,19.4,26,30.23,10.0,SSE,12.7,-,N/A,,Clear,160,2013-02-08 19:15:00
1:35 PM,53.6,19.4,26,30.21,10.0,SSE,13.8,-,N/A,,Clear,160,2013-02-08 19:35:00
1:55 PM,53.6,19.4,26,30.20,10.0,SSE,12.7,-,N/A,,Clear,150,2013-02-08 19:55:00
2:15 PM,55.4,19.4,25,30.19,10.0,SSE,12.7,20.7,N/A,,Clear,150,2013-02-08 20:15:00
2:35 PM,55.4,15.8,21,30.18,10.0,South,12.7,17.3,N/A,,Clear,170,2013-02-08 20:35:00
2:55 PM,57.2,17.6,21,30.18,10.0,SSE,15.0,18.4,N/A,,Clear,160,2013-02-08 20:55:00
3:15 PM,57.2,17.6,21,30.16,10.0,SE,11.5,18.4,N/A,,Clear,140,2013-02-08 21:15:00
3:35 PM,55.4,15.8,21,30.16,10.0,SSE,16.1,21.9,N/A,,Clear,150,2013-02-08 21:35:00
3:55 PM,55.4,17.6,23,30.16,10.0,SSE,13.8,-,N/A,,Clear,150,2013-02-08 21:55:00
4:15 PM,53.6,17.6,24,30.14,10.0,SSE,11.5,-,N/A,,Clear,150,2013-02-08 22:15:00
4:35 PM,53.6,17.6,24,30.13,10.0,SSE,13.8,-,N/A,,Clear,150,2013-02-08 22:35:00
4:55 PM,53.6,17.6,24,30.12,10.0,SE,13.8,-,N/A,,Clear,130,2013-02-08 22:55:00
5:15 PM,51.8,17.6,26,30.11,10.0,SE,11.5,-,N/A,,Clear,140,2013-02-08 23:15:00
5:35 PM,51.8,15.8,24,30.11,10.0,SE,12.7,18.4,N/A,,Clear,140,2013-02-08 23:35:00
5:55 PM,50.0,15.8,26,30.11,10.0,SE,10.4,-,N/A,,Clear,140,2013-02-08 23:55:00
6:15 PM,48.2,15.8,27,30.10,10.0,SE,8.1,-,N/A,,Clear,140,2013-02-09 00:15:00
6:35 PM,44.6,17.6,34,30.10,10.0,SE,8.1,-,N/A,,Clear,130,2013-02-09 00:35:00
6:55 PM,44.6,17.6,34,30.10,10.0,SE,8.1,-,N/A,,Clear,140,2013-02-09 00:55:00
7:15 PM,44.6,15.8,31,30.10,10.0,SSE,6.9,-,N/A,,Clear,150,2013-02-09 01:15:00
7:35 PM,44.6,17.6,34,30.11,10.0,ESE,5.8,-,N/A,,Clear,120,2013-02-09 01:35:00
7:55 PM,42.8,17.6,36,30.10,10.0,SE,9.2,-,N/A,,Clear,130,2013-02-09 01:55:00
8:15 PM,42.8,19.4,39,30.10,10.0,SE,9.2,-,N/A,,Clear,140,2013-02-09 02:15:00
8:35 PM,42.8,21.2,42,30.10,10.0,SE,9.2,-,N/A,,Clear,130,2013-02-09 02:35:00
8:55 PM,42.8,21.2,42,30.10,10.0,SE,9.2,-,N/A,,Clear,140,2013-02-09 02:55:00
9:15 PM,42.8,23.0,46,30.10,10.0,SE,12.7,-,N/A,,Clear,140,2013-02-09 03:15:00
9:35 PM,42.8,23.0,46,30.10,10.0,SE,10.4,-,N/A,,Clear,140,2013-02-09 03:35:00
9:55 PM,41.0,23.0,49,30.09,10.0,SE,9.2,-,N/A,,Clear,130,2013-02-09 03:55:00
10:15 PM,41.0,23.0,49,30.10,10.0,ESE,8.1,-,N/A,,Clear,120,2013-02-09 04:15:00
10:35 PM,41.0,24.8,53,30.09,10.0,SE,10.4,-,N/A,,Clear,140,2013-02-09 04:35:00
10:55 PM,42.8,24.8,49,30.09,10.0,SSE,11.5,-,N/A,,Clear,150,2013-02-09 04:55:00
11:15 PM,41.0,24.8,53,30.09,10.0,SSE,13.8,-,N/A,,Clear,150,2013-02-09 05:15:00
11:35 PM,41.0,26.6,57,30.08,10.0,SSE,13.8,18.4,N/A,,Clear,150,2013-02-09 05:35:00
11:55 PM,42.8,26.6,53,30.07,10.0,SSE,15.0,19.6,N/A,,Clear,150,2013-02-09 05:55:00